[[{"header":{"parameterUnit":"m.s-1","parameterCategory":1,"la1":30.2992,"la2":30.254,"lo1":-89.0895,"lo2":-89.0443,"dy":0.0025,"dx":0.0025,"nx":19,"ny":19,"refTime":"2026-04-27T21:00:00:Z","depth":0,"parameterNumber":2,"parameterNumberName":"U-component_of_WINDS"},"data":[0,0,0,1.2678,1.2678,1.2697,1.2697,1.273,1.273,0,0,0,0,0,0,0,0,0,0,0,1.2678,1.2678,1.2678,1.2678,1.2697,1.2697,1.273,1.273,0,0,0,0,0,0,0,0,0,0,0,1.2678,1.2678,1.2679,1.2678,1.2697,1.2697,1.273,1.2712,0,0,0,0,0,0,0,0,0,0,1.2693,1.2699,1.2678,1.2679,1.2678,1.2697,1.2697,1.2711,1.2714,1.2726,0,1.2738,0,1.2735,1.2733,1.2733,0,0,0,1.2674,1.2697,1.2697,1.2679,1.2679,1.2697,1.2687,1.2713,1.2715,1.2728,1.2738,1.2739,1.2735,1.2733,1.2734,1.2815,1.2815,0,0,1.2673,1.2684,1.2695,1.2698,1.2696,1.2687,1.2688,1.2714,1.2725,1.2738,1.274,1.2736,1.2734,1.2734,1.2814,1.2815,0,0,0,1.2673,1.2684,1.2683,1.2697,1.27,1.2687,1.2689,1.2724,1.2723,1.274,1.2736,1.2734,1.2735,1.2814,1.2814,1.2853,0,0,0,1.2672,1.2684,1.2682,1.269,1.27,1.2712,1.2699,1.2721,1.2724,1.2736,1.2734,1.2735,1.2813,1.2814,1.285,1.2869,0,0,0,1.2675,1.2684,1.2688,1.269,1.2699,1.2712,1.2712,1.2721,1.2721,1.2733,1.2735,1.2813,1.2814,1.2848,1.2865,1.2892,0,0,0,1.2681,1.2724,1.2689,1.2735,1.2699,1.2735,1.2711,1.2738,1.2753,1.2734,1.2813,1.2814,1.2847,1.2863,1.289,1.2916,1.2929,0,0,1.2741,1.2731,1.2757,1.2727,1.2773,1.2731,1.2782,1.2786,1.2777,1.2803,1.2805,1.2851,1.2865,1.2892,1.2995,1.3005,0,0,0,1.278,1.2799,1.2808,1.2823,1.2826,1.2829,1.2823,1.2824,1.2845,1.2793,1.2868,1.2876,1.2891,1.2903,1.2912,1.2923,1.2821,1.2821,1.282,1.2882,1.2867,1.2909,1.2896,1.291,1.2902,1.2912,1.2912,1.2895,1.2913,1.292,1.2984,1.2999,1.3005,1.3017,1.2933,1.2934,1.2934,1.2934,1.2968,1.2991,1.2965,1.2996,1.298,1.3006,1.3,1.2986,1.3007,1.2978,1.2991,1.2959,1.3016,1.3026,1.2936,1.2936,1.2936,1.2935,1.2935,1.3032,1.304,1.304,1.3057,1.3073,1.3058,1.3079,1.3065,1.3051,1.3064,1.3069,1.3068,1.3064,1.3067,1.3067,1.3068,1.3068,1.3068,1.3068,1.3098,1.3096,1.3116,1.3121,1.3127,1.3133,1.3125,1.3131,1.3133,1.3121,1.3121,1.31,1.3025,1.3005,1.3071,1.3071,1.307,1.307,1.307,1.3189,1.3166,1.3196,1.3201,1.3205,1.322,1.3201,1.3213,1.3216,1.3226,1.3203,1.315,1.3139,1.3132,1.3116,1.3207,1.3207,1.3207,1.3207,1.3242,1.3235,1.3261,1.3271,1.3279,1.3264,1.3297,1.3291,1.3281,1.3282,1.3266,1.3244,1.3238,1.3231,1.3222,1.3206,1.3318,1.3318,1.3318,1.3297,1.3289,1.332,1.3309,1.3311,1.3312,1.3343,1.3355,1.3339,1.3322,1.3281,1.3277,1.324,1.3229,1.3211,1.3198,1.3169,0,0]},{"header":{"parameterUnit":"m.s-1","parameterCategory":1,"la1":30.2992,"la2":30.254,"lo1":-89.0895,"lo2":-89.0443,"dy":0.0025,"dx":0.0025,"nx":19,"ny":19,"refTime":"2026-04-27T21:00:00:Z","depth":0,"parameterNumber":3,"parameterNumberName":"V-component_of_WINDS"},"data":[0,0,0,2.5819,2.5819,2.5841,2.5841,2.5875,2.5876,0,0,0,0,0,0,0,0,0,0,0,2.5817,2.5818,2.5819,2.5819,2.5841,2.5841,2.5875,2.5876,0,0,0,0,0,0,0,0,0,0,0,2.5817,2.5818,2.5818,2.5819,2.5841,2.5841,2.5875,2.5856,0,0,0,0,0,0,0,0,0,0,2.5834,2.5838,2.5817,2.5818,2.582,2.5841,2.5841,2.5855,2.5858,2.5869,0,2.5881,0,2.5879,2.5879,2.5879,0,0,0,2.5815,2.5836,2.5838,2.5818,2.582,2.5841,2.583,2.5856,2.5859,2.5872,2.5882,2.5883,2.588,2.5879,2.5879,2.5961,2.5961,0,0,2.5814,2.5824,2.5836,2.5839,2.5838,2.5829,2.5831,2.5858,2.5869,2.5882,2.5883,2.588,2.5879,2.588,2.596,2.5961,0,0,0,2.5813,2.5823,2.5824,2.5838,2.5842,2.583,2.5832,2.5867,2.5867,2.5884,2.5881,2.5879,2.588,2.596,2.5961,2.5999,0,0,0,2.5813,2.5822,2.5823,2.5829,2.5841,2.5855,2.5841,2.5865,2.5868,2.5881,2.5879,2.588,2.5959,2.596,2.5996,2.6015,0,0,0,2.5814,2.5823,2.5828,2.583,2.5839,2.5854,2.5855,2.5865,2.5866,2.5879,2.5881,2.5959,2.596,2.5994,2.6012,2.604,0,0,0,2.5818,2.586,2.5828,2.5874,2.5839,2.5878,2.5855,2.5883,2.5898,2.588,2.5959,2.5961,2.5994,2.6009,2.6038,2.6066,2.6079,0,0,2.5876,2.5867,2.5894,2.5866,2.5913,2.5874,2.5926,2.5931,2.5922,2.5948,2.595,2.5997,2.6011,2.604,2.6146,2.6156,0,0,0,2.5915,2.5934,2.5944,2.596,2.5966,2.5972,2.5967,2.5969,2.5991,2.5938,2.6015,2.6023,2.6039,2.6052,2.6061,2.6074,2.5967,2.5967,2.5967,2.601,2.5999,2.6042,2.6033,2.6049,2.6045,2.6056,2.6058,2.604,2.6059,2.6067,2.6132,2.6148,2.6155,2.6169,2.608,2.608,2.6081,2.6081,2.6095,2.612,2.6098,2.6131,2.6119,2.6146,2.6144,2.6131,2.6155,2.6125,2.6139,2.6108,2.6166,2.6178,2.6083,2.6083,2.6083,2.6082,2.6082,2.6156,2.6166,2.6169,2.6191,2.621,2.6199,2.6224,2.6211,2.6199,2.6213,2.622,2.6219,2.6217,2.6217,2.6217,2.6217,2.6218,2.6218,2.6218,2.6219,2.622,2.6243,2.6253,2.6262,2.6273,2.6269,2.6278,2.6284,2.6272,2.6272,2.6254,2.6174,2.6154,2.6221,2.6221,2.622,2.622,2.622,2.6309,2.6287,2.6322,2.6331,2.6343,2.6362,2.6346,2.6364,2.6369,2.6382,2.6361,2.6304,2.6293,2.6286,2.627,2.6363,2.6363,2.6363,2.6363,2.6361,2.6355,2.6388,2.6404,2.6418,2.6408,2.6448,2.6446,2.6441,2.6443,2.6428,2.6405,2.6398,2.6392,2.6383,2.6367,2.6483,2.6483,2.6483,2.6416,2.6411,2.6447,2.6443,2.6451,2.6459,2.6496,2.6515,2.6504,2.6488,2.6445,2.644,2.6403,2.6391,2.6374,2.636,2.6332,0,0]}]]